Simultaneous Nadir Overpasses (SNOs) Predictions

Prediction of SNOs between METOP-A and NOAA-19 Satellite Orbit:

Table of predicted SNOs for the next 14.0 days since TLE Epoch: 12/21/2013
Index Date (METOP-A) Time (METOP-A) Lat,Lon (METOP-A) SZA (METOP-A ) Date (NOAA-19) Time (NOAA-19) Lat,Lon (NOAA-19) SZA (NOAA-19 ) Distance(km) Time Diff (sec)
1 12/27/2013 03:36:03 -74.25, -59.06 82.46 12/27/2013 03:34:54 -74.28, -61.35 82.35 69.06 69
2 12/27/2013 04:26:52 73.81, 107.18 97.13 12/27/2013 04:25:48 73.79, 107.13 97.12 2.02 64
3 12/27/2013 05:17:34 -73.79, -85.54 82.89 12/27/2013 05:16:48 -73.79, -85.61 82.88 2.46 46
4 12/27/2013 06:08:15 73.74, 81.67 97.06 12/27/2013 06:07:51 73.74, 81.75 97.06 2.44 24
5 12/27/2013 06:58:57 -73.72,-111.04 82.96 12/27/2013 06:58:51 -73.74,-111.00 82.94 2.55 6
6
